{"data":{"norad_id":67460,"epoch":"2026-09-19T22:03:18.515520Z","epoch_age_seconds":122408,"freshness":"FRESH","line1":"1 67460U 26008R   26262.91896430  .00004148  00000+0  16013-3 0  9997","line2":"2 67460  43.0021 188.6173 0001176 264.9005  95.1713 15.27584635 39273","mean_motion":15.27584635,"eccentricity":0.0001176,"inclination_deg":43.0021,"raan_deg":188.6173,"arg_perigee_deg":264.9005,"mean_anomaly_deg":95.1713,"bstar":0.00016013,"rev_number":3927,"period_min":94.266462689316,"perigee_km":482.22834336457,"apogee_km":483.84209107006,"semimajor_km":6861.1722172173,"source":"CELESTRAK","updated_at":"2026-09-20T09:00:43.550727Z"}}